Notices

What's New in latest Release from April 7th, 2021:

- Updated Glossary, including Speed of Maximum Gust, and Total Hourly Precipitation

- Updated national and regional climate services offices contacts and prices information

- Addition of station inventory lists for 1981-2010, 1971-2000, and 1961-1990 Normals.

If you haven't already, please take our survey and provide feedback about our website: https://eccc.sondage-survey.ca/f/LanguageSelection.aspx?s=442ca660-fcf1-47c0-95a9-59707d6fd709

Hourly Data Report for August 21, 2004

SHERBROOKE A
QUEBEC

45°26'00.000" N
71°41'00.000" W
241.40 m
7028124
71610
YSC

Download Data

Hourly Data (August 2004)
Hourly Data Report for August 21, 2004
TIME
LST
Temp Definition
°C
Dew Point Definition
°C
Rel Hum Definition
%
Precip. Amount Definition
mm

Wind Dir Definition
10's deg

Wind Spd Definition
km/h
Visibility Definition
km
Stn Press Definition
kPa
Hmdx Definition


Wind Chill Definition


Weather Definition


00:00 17.3 13.3 77   20 6 15.0 98.43     Rain
01:00 16.3 13.6 84   19 4 15.0 98.44     Rain
02:00 15.8 14.0 89   16 6 15.0 98.35     Rain
03:00 15.4 14.3 93     0 9.7 98.34     Rain
04:00 15.3 14.1 93     0 9.7 98.30     Rain
05:00 15.1 14.1 94   21 4 9.7 98.25     Rain
06:00 14.6 13.7 94   21 6 11.3 98.28     Rain
07:00 14.7 13.8 94   18 6 19.3 98.25     Cloudy
08:00 14.6 13.5 93   19 4 16.1 98.22     Rain
09:00 14.6 13.7 94   24 6 12.9 98.18     Rain
10:00 14.4 13.4 94   26 7 8.0 98.19     Rain,Fog
11:00 14.7 13.8 94   20 4 4.8 98.12     Rain,Fog
12:00 15.2 14.1 93   20 4 19.3 98.07     Rain
13:00 15.5 14.2 92   26 6 19.3 98.08     Rain
14:00 16.3 13.8 85   26 11 24.1 98.07     Cloudy
15:00 16.7 13.8 83   27 13 24.1 98.08     Cloudy
16:00 16.7 13.3 80   26 15 24.1 98.09     Mostly Cloudy
17:00 17.5 13.4 77   25 11 15.0 98.09      
18:00 16.3 11.9 75   28 13 15.0 98.15      
19:00 14.4 10.9 79   25 11 15.0 98.24      
20:00 13.0 9.8 81   24 6 15.0 98.32      
21:00 10.3 9.1 92   9 4 15.0 98.39      
22:00 9.6 8.0 90   26 4 15.0 98.49      
23:00 10.2 8.5 89   27 6 15.0 98.55      

Notes on Data Quality.

Legend

  • E = Estimated
  • M = Missing
  • NA = Not Available*
  • [empty] = Indicates an unobserved value
Date modified: